Location: Newark
(35.9031°N, 139.7175°E)
Time: 13:25:53
(UTC+00:00)

Transit 2A - Pass Details

Date: 31 May 2020
Orbit: 592 x 967 km, 66.7° (Epoch: 06 July)

Event Time Altitude Azimuth Distance (km) Brightness Sun altitude
Rises 12:20:57 0° 339° (NNW) 3,565 10.8 -23.5°
Reaches altitude 10° 12:23:35 10° 346° (NNW) 2,655 9.7 -23.8°
Maximum altitude 12:29:32 44° 57° (ENE) 1,313 7.1 -24.5°
Enters shadow 12:31:05 37° 92° (E) 1,449 7.1 -24.7°
